TimeEEST,TemperatureF,Dew PointF,Humidity,Sea Level PressureIn,VisibilityMPH,Wind Direction,Wind SpeedMPH,Gust SpeedMPH,PrecipitationIn,Events,Conditions,WindDirDegrees,DateUTC
12:50 AM,55.4,46.4,72,30.04,-9999.0,NNE,10.4,-,N/A,,Clear,20,2013-07-09 21:50:00
1:50 AM,53.6,46.4,77,30.04,-9999.0,North,10.4,-,N/A,,Clear,360,2013-07-09 22:50:00
2:50 AM,53.6,44.6,72,30.01,-9999.0,NE,9.2,-,N/A,,Clear,50,2013-07-09 23:50:00
3:50 AM,51.8,44.6,76,30.01,-9999.0,Variable,3.5,-,N/A,,Clear,0,2013-07-10 00:50:00
4:50 AM,51.8,44.6,76,30.01,-9999.0,North,6.9,-,N/A,,Clear,360,2013-07-10 01:50:00
5:50 AM,53.6,44.6,72,29.98,-9999.0,NE,8.1,-,N/A,,Clear,40,2013-07-10 02:50:00
6:50 AM,60.8,46.4,59,29.98,-9999.0,NE,9.2,-,N/A,,Clear,50,2013-07-10 03:50:00
7:50 AM,64.4,46.4,52,29.98,-9999.0,NE,11.5,-,N/A,,Clear,50,2013-07-10 04:50:00
8:50 AM,68.0,44.6,43,29.98,-9999.0,NNE,10.4,-,N/A,,Clear,30,2013-07-10 05:50:00
9:00 AM,68,47,35,,9,SSE,2.3,,,,,160,2013-07-10 06:00:00
9:50 AM,69.8,44.6,40,29.95,-9999.0,NE,11.5,-,N/A,,Clear,40,2013-07-10 06:50:00
10:50 AM,71.6,41.0,33,29.95,-9999.0,North,10.4,-,N/A,,Clear,10,2013-07-10 07:50:00
11:50 AM,73.4,42.8,33,29.95,-9999.0,North,16.1,-,N/A,,Clear,10,2013-07-10 08:50:00
12:50 PM,73.4,41.0,31,29.95,-9999.0,North,15.0,-,N/A,,Clear,10,2013-07-10 09:50:00
1:50 PM,75.2,41.0,29,29.92,-9999.0,North,13.8,-,N/A,,Clear,10,2013-07-10 10:50:00
2:50 PM,73.4,46.4,38,29.92,6.2,North,19.6,-,N/A,,Partly Cloudy,360,2013-07-10 11:50:00
3:00 PM,82,34,9,,9,NNE,5.8,,,,,20,2013-07-10 12:00:00
3:50 PM,73.4,44.6,36,29.92,6.2,North,16.1,-,N/A,,Partly Cloudy,360,2013-07-10 12:50:00
4:50 PM,73.4,44.6,36,29.92,6.2,North,18.4,-,N/A,,Partly Cloudy,10,2013-07-10 13:50:00
5:50 PM,71.6,46.4,41,29.89,-9999.0,North,18.4,-,N/A,,Clear,360,2013-07-10 14:50:00
6:50 PM,68.0,48.2,49,29.92,-9999.0,North,17.3,-,N/A,,Clear,360,2013-07-10 15:50:00
7:50 PM,64.4,48.2,56,29.92,-9999.0,North,13.8,-,N/A,,Clear,360,2013-07-10 16:50:00
8:50 PM,60.8,50.0,68,29.95,-9999.0,North,11.5,-,N/A,,Clear,350,2013-07-10 17:50:00
9:00 PM,68,51,44,,9,NE,5.8,,,,,50,2013-07-10 18:00:00
9:50 PM,57.2,50.0,77,29.95,-9999.0,NNW,12.7,-,N/A,,Clear,340,2013-07-10 18:50:00
10:50 PM,57.2,48.2,72,29.95,-9999.0,North,9.2,-,N/A,,Clear,360,2013-07-10 19:50:00
11:50 PM,55.4,48.2,77,29.92,-9999.0,North,8.1,-,N/A,,Clear,360,2013-07-10 20:50:00